Back to catalog

FENGYUN 1C DEB

AlivePO
NORAD 31420·DEBRIS·🇨🇳 China

Launched May 10, 1999 from Taiyuan Satellite Launch Center

Loading…

Next Passes (next 24 hours)

TLE

FreshSource: Space-Track

Epoch: Sep 13, 2026, 09:50 UTC

1 31420U 99025BTG 26256.41029376  .00000769  00000-0  22364-3 0  9990
2 31420  97.5267 127.4639 0133635 201.4094 334.2109 14.41599601689501

Track FENGYUN 1C DEB in real time with AllMySat

Download on the App Store